Weather History for Marrakech, Morocco

Change the Weather History Date:

Wednesday, January 8, 2014

  Actual Average Record
Temperature  
Mean Temperature 60 °F -  
Max Temperature 80 °F 64 °F 80 °F (2014)
Min Temperature 40 °F 43 °F 35 °F (2009)
Degree Days  
Heating Degree Days 5    
Growing Degree Days 10 (Base 50)    
Moisture  
Dew Point 30 °F    
Average Humidity 32    
Maximum Humidity 57    
Minimum Humidity 7    
Precipitation  
Precipitation 0.00 in 0.04 in - ()
Sea Level Pressure  
Sea Level Pressure 30.06 in    
Wind  
Wind Speed 5 mph ()    
Max Wind Speed 12 mph    
Max Gust Speed -    
Visibility 6.0 miles    
Events      
Averages and records for this station are not official NWS values.
T = Trace of Precipitation, MM = Missing Value Source: Averaged Metar Reports

Daily Weather History Graph

Daily Weather History Graph

Search for Another Location

Airport:

Trip Planner

Search our weather history database for the weather conditions in past years. The results will help you decide how hot, cold, wet, or windy it might be!

Date:

Astronomy

Jan. 08, 2014 Rise Set
Actual Time 7:32 AM WET 5:45 PM WET
Civil Twilight 7:06 AM WET 6:11 PM WET
Nautical Twilight 6:35 AM WET 6:41 PM WET
Astronomical Twilight 6:06 AM WET 7:11 PM WET
Moon 12:17 PM WET (1/8) 12:37 AM WET (1/8)
Length of Visible Light 11h 05m
Length of Day
10h 12m
First Quarter, 53% of the Moon is Illuminated
Jan 8
First Quarter
Jan 16
Full
Jan 24
Last Quarter
Jan 30
New
Feb 6
First Quarter

Hourly Weather History & Observations

Time (WET) Temp. Windchill Dew Point Humidity Pressure Visibility Wind Dir Wind Speed Gust Speed Precip Events Conditions
12:00 AM 53 °F - 31 °F 31% 30.15 in 6 mi SSE 2.3 mph - -  
12:00 AM 53.6 °F - 32.0 °F 44% 30.12 in - Variable 2.3 mph - N/A   Clear
12:30 AM 53.6 °F - 30.2 °F 41% 30.12 in - South 2.3 mph - N/A   Clear
1:00 AM 53.6 °F - 28.4 °F 38% 30.12 in - Variable 2.3 mph - N/A   Clear
1:30 AM 55.4 °F - 28.4 °F 36% 30.12 in - Variable 1.2 mph - N/A   Clear
2:00 AM 55.4 °F - 26.6 °F 33% 30.12 in - South 3.5 mph - N/A   Clear
2:30 AM 53.6 °F - 28.4 °F 38% 30.12 in - East 5.8 mph - N/A   Clear
3:00 AM 47 °F - 30 °F 39% 30.14 in 6 mi East 5.8 mph - -  
3:00 AM 48.2 °F - 30.2 °F 50% 30.09 in - East 5.8 mph - N/A   Clear
3:30 AM 46.4 °F 45.2 °F 30.2 °F 53% 30.09 in - ESE 3.5 mph - N/A   Clear
4:00 AM 48.2 °F - 30.2 °F 50% 30.09 in - East 3.5 mph - N/A   Clear
4:30 AM 46.4 °F 45.2 °F 30.2 °F 53% 30.09 in - ENE 3.5 mph - N/A   Clear
5:00 AM 46.4 °F - 30.2 °F 53% 30.09 in - East 2.3 mph - N/A   Clear
5:30 AM 46.4 °F 44.3 °F 30.2 °F 53% 30.09 in - ENE 4.6 mph - N/A   Clear
6:00 AM 46 °F - 30 °F 41% 30.14 in 6 mi East 5.8 mph - -  
6:00 AM 46.4 °F 43.5 °F 30.2 °F 53% 30.09 in - East 5.8 mph - N/A   Clear
6:30 AM 46.4 °F 43.5 °F 30.2 °F 53% 30.09 in - East 5.8 mph - N/A   Clear
7:00 AM 44.6 °F 40.7 °F 30.2 °F 57% 30.09 in - East 6.9 mph - N/A   Clear
7:30 AM 44.6 °F 40.2 °F 28.4 °F 53% 30.09 in - ESE 8.1 mph - N/A   Clear
8:00 AM 46.4 °F 42.9 °F 28.4 °F 50% 30.09 in - ENE 6.9 mph - N/A   Clear
8:30 AM 50.0 °F - 30.2 °F 47% 30.12 in - East 8.1 mph - N/A   Clear
9:00 AM 55 °F - 31 °F 27% 30.12 in 6 mi East 5.8 mph - -   Clear
9:00 AM 55.4 °F - 30.2 °F 38% 30.12 in 5.6 mi East 5.8 mph - N/A   Unknown
9:30 AM 59.0 °F - 32.0 °F 36% 30.12 in - ENE 5.8 mph - N/A   Clear
10:00 AM 62.6 °F - 32.0 °F 32% 30.12 in - East 5.8 mph - N/A   Clear
10:30 AM 66.2 °F - 33.8 °F 30% 30.12 in - East 4.6 mph - N/A   Clear
11:00 AM 69.8 °F - 32.0 °F 25% 30.12 in - ENE 6.9 mph - N/A   Clear
11:30 AM 71.6 °F - 32.0 °F 23% 30.09 in - NE 5.8 mph - N/A   Clear
12:00 PM 74 °F - 32 °F 12% 30.04 in 6 mi NE 5.8 mph - -   Clear
12:00 PM 75.2 °F - 33.8 °F 22% 30.09 in - NE 5.8 mph - N/A   Clear
12:30 PM 77.0 °F - 32.0 °F 19% 30.06 in - ENE 5.8 mph - N/A   Clear
1:00 PM 78.8 °F - 26.6 °F 15% 30.06 in - NE 3.5 mph - N/A   Clear
1:30 PM 78.8 °F - 26.6 °F 15% 30.04 in - NE 6.9 mph - N/A   Clear
2:00 PM 78.8 °F - 28.4 °F 16% 30.01 in - ENE 8.1 mph - N/A   Clear
2:30 PM 78.8 °F - 28.4 °F 16% 30.01 in - NE 8.1 mph - N/A   Clear
3:00 PM 80 °F - 28 °F 7% 29.93 in 6 mi NNE 8.1 mph - -   Clear
3:00 PM 78.8 °F - 28.4 °F 16% 30.01 in - NNE 9.2 mph - N/A   Clear
3:30 PM 80.6 °F - 28.4 °F 15% 30.01 in - ENE 10.4 mph - N/A   Clear
4:00 PM 80.6 °F - 26.6 °F 14% 29.98 in - NE 9.2 mph - N/A   Clear
4:30 PM 78.8 °F - 26.6 °F 15% 29.98 in - NE 9.2 mph - N/A   Clear
5:00 PM 78.8 °F - 28.4 °F 16% 29.98 in - NE 8.1 mph - N/A   Clear
5:30 PM 77.0 °F - 30.2 °F 18% 29.98 in - NE 6.9 mph - N/A   Clear
6:00 PM 74 °F - 29 °F 10% 29.93 in 6 mi ENE 10.4 mph - -   Clear
6:00 PM 75.2 °F - 30.2 °F 19% 29.98 in - ENE 10.4 mph - N/A   Clear
6:30 PM 73.4 °F - 28.4 °F 19% 30.01 in 6.2 mi ENE 11.5 mph - N/A   Unknown
7:00 PM 71.6 °F - 28.4 °F 20% 30.01 in - NE 10.4 mph - N/A   Clear
7:30 PM 69.8 °F - 28.4 °F 21% 30.01 in - NE 6.9 mph - N/A   Clear
8:00 PM 66.2 °F - 28.4 °F 24% 30.01 in - ENE 5.8 mph - N/A   Clear
8:30 PM 64.4 °F - 28.4 °F 26% 30.01 in - East 6.9 mph - N/A   Clear
9:00 PM 63 °F - 28 °F 16% 30.01 in 6 mi ESE 5.8 mph - -   Clear
9:00 PM 62.6 °F - 30.2 °F 30% 30.04 in - ESE 5.8 mph - N/A   Clear
10:00 PM 57.2 °F - 32.0 °F 38% 30.01 in - SE 5.8 mph - N/A   Clear
10:30 PM 57.2 °F - 32.0 °F 38% 30.01 in - East 6.9 mph - N/A   Clear
11:00 PM 55.4 °F - 32.0 °F 41% 30.01 in - ENE 5.8 mph - N/A   Clear
11:30 PM 57.2 °F - 32.0 °F 38% 30.01 in - Variable 2.3 mph - N/A   Clear